Wind_Speed
46 46 45 46 46 46 45 45 44 45 45 45 44 44 44 44 44 43 44 44 44 44 45 45 45 45 46 46 47 48 48 48 49 48 49 50 50 51 50 50 49 49 48
46 46 46 46 46 46 46 46 46 45 46 46 45 45 44 44 44 44 44 45 45 45 46 46 46 47 47 48 48 49 50 50 51 50 50 50 50 50 49 48 47 46 45
46 46 47 47 47 47 47 46 46 46 46 46 46 45 45 45 46 46 46 46 46 46 47 47 47 48 48 48 49 50 51 52 52 52 51 50 50 49 48 46 45 44 43
47 47 47 47 47 47 47 46 47 47 47 46 46 46 46 46 47 47 47 47 47 47 48 48 48 49 49 50 50 51 52 52 52 52 51 49 49 48 47 45 44 43 43
47 47 47 47 48 47 47 47 47 47 46 46 46 46 46 47 47 47 48 48 48 48 48 48 48 49 49 50 51 52 52 52 52 51 49 48 47 46 45 44 43 42 42
46 46 47 47 48 48 48 48 48 47 47 47 47 47 47 47 48 48 47 47 48 48 47 48 48 49 50 50 51 51 51 51 51 50 49 47 46 45 44 43 42 41 41
46 46 46 47 48 48 48 48 48 48 48 48 48 48 48 48 48 48 47 47 47 47 47 48 48 49 50 50 50 50 50 50 50 49 48 47 46 45 44 43 42 42 41
47 47 47 47 48 48 48 48 48 48 48 49 49 49 48 48 48 48 47 47 47 47 48 48 49 49 49 49 49 49 48 48 48 48 47 47 46 44 44 42 40 40 40
47 47 47 47 47 48 48 48 48 48 48 48 48 48 48 47 47 47 47 47 48 48 49 49 49 49 48 48 47 47 47 46 46 46 45 44 43 42 41 39 39 38 38
46 46 47 47 47 47 47 47 48 48 47 47 47 47 47 46 46 46 47 47 48 48 49 49 48 48 47 47 46 46 45 44 43 42 41 40 39 39 38 38 38 39 39
45 45 46 46 47 47 47 47 47 47 46 46 46 46 46 45 46 46 46 46 47 47 47 46 46 46 45 45 45 44 42 41 40 39 38 37 37 37 37 38 38 39 39
43 43 44 44 45 45 44 44 44 45 45 45 45 44 44 45 45 46 46 46 46 46 46 45 45 45 45 44 42 41 40 39 38 37 36 36 36 36 37 38 38 38 38
41 41 42 42 43 43 43 42 42 42 43 43 43 42 43 43 43 44 44 44 44 44 44 44 43 43 42 41 39 38 37 36 35 36 36 36 36 37 37 37 36 37 37
40 41 41 41 41 42 42 42 41 41 41 42 42 42 42 42 42 42 42 42 43 42 42 41 40 40 39 39 37 36 35 35 35 35 35 36 36 36 35 35 35 35 35
39 39 40 40 41 41 41 40 40 40 39 40 40 41 41 41 41 41 41 42 42 41 40 39 39 38 36 35 35 35 35 35 35 35 36 36 35 35 35 35 35 34 33
36 37 38 38 38 38 38 38 38 38 38 39 39 39 39 40 40 41 41 41 40 38 38 37 36 35 35 34 34 34 33 33 34 34 34 34 34 34 33 33 33 31 30
34 34 34 35 35 36 36 36 36 37 37 37 37 38 38 38 38 39 39 39 37 36 35 34 34 33 33 33 33 33 33 33 33 32 32 32 32 32 32 32 31 30 29
32 33 34 34 34 34 34 35 35 35 36 36 36 36 36 37 37 36 36 35 34 34 34 34 34 34 33 33 33 32 32 31 31 30 30 30 30 31 31 30 30 29 28
31 31 32 32 33 32 33 33 33 33 34 34 34 34 34 34 33 33 33 32 32 32 33 33 33 33 33 33 32 32 31 30 30 30 30 30 30 30 29 28 28 27 27
30 30 30 31 31 31 32 32 32 32 32 32 32 32 32 31 31 31 30 30 30 31 31 31 32 32 31 31 31 30 30 30 30 29 29 29 30 29 28 27 26 25 25
29 29 30 30 30 30 30 31 31 30 30 30 30 30 30 30 30 30 30 30 30 29 29 30 30 29 29 29 29 29 29 29 29 29 29 29 28 26 25 24 23 22 21
29 29 29 29 28 28 28 29 29 29 28 28 27 28 28 28 28 28 29 29 29 29 29 29 29 28 28 28 27 27 27 27 28 28 27 26 25 24 23 21 20 19 18
28 28 27 27 27 27 27 27 27 27 27 27 27 27 26 26 26 26 27 27 27 27 27 27 27 27 27 26 26 26 26 25 25 25 24 22 21 20 19 18 17 17 17
27 27 27 27 27 26 26 26 25 25 25 25 25 24 24 24 24 24 25 25 25 25 24 24 24 24 24 24 24 23 23 23 22 21 20 19 17 16 16 15 15 15 15
27 27 27 27 26 26 26 25 25 25 24 24 23 23 22 22 22 22 22 22 22 22 22 21 21 20 20 20 20 20 19 19 18 17 16 15 14 13 13 13 13 12 12
26 26 26 26 26 25 25 24 24 24 24 23 22 22 21 21 21 21 21 20 20 20 19 19 18 18 18 18 17 16 16 15 14 13 12 11 11 10 10 10 10 10 9
Wind_Direction
249 250 252 253 254 256 257 259 261 262 264 265 266 268 270 273 275 276 278 280 281 282 284 285 287 289 290 291 292 293 294 296 296 297 298 299 300 299 298 299 300 301 300
249 250 251 253 254 256 258 259 261 263 264 265 266 268 271 273 274 276 278 280 281 282 283 284 286 288 289 291 291 293 294 295 296 298 298 299 300 299 299 300 300 300 300
249 250 251 253 254 256 258 259 261 263 264 266 267 268 270 272 274 276 278 280 281 281 283 285 286 287 288 290 291 292 293 295 296 297 298 299 300 300 300 300 300 300 299
250 252 253 254 255 256 258 259 261 263 264 266 268 269 271 273 274 276 278 280 281 281 283 284 286 287 288 289 291 292 293 295 296 298 299 299 299 300 300 299 299 299 299
251 252 253 255 255 256 257 259 261 263 264 266 268 270 272 273 275 276 278 279 280 281 282 284 285 286 288 289 291 292 293 295 296 297 298 298 299 299 299 299 299 299 299
252 253 254 255 256 257 258 260 261 262 264 266 268 270 272 273 275 277 278 279 280 281 282 283 285 286 288 289 291 292 293 294 295 296 296 297 297 297 298 299 299 298 297
252 253 255 256 257 257 259 260 261 262 264 266 268 270 272 273 275 276 277 278 280 281 282 284 285 286 288 289 290 292 292 292 293 294 295 296 296 296 297 298 298 299 299
254 254 255 257 257 258 259 261 262 263 265 267 268 270 272 273 274 275 276 278 279 281 283 284 285 286 287 289 290 291 291 292 292 292 294 295 296 296 297 298 298 299 300
254 255 256 257 258 259 260 260 262 263 265 266 268 269 271 272 273 275 276 277 279 281 283 284 285 286 287 288 289 290 291 291 292 293 293 295 297 297 298 298 298 300 301
255 256 256 257 259 259 260 260 262 262 264 265 267 269 270 271 272 274 276 277 279 282 283 284 285 286 287 288 289 290 291 292 292 293 294 295 296 297 298 299 299 300 301
255 256 257 258 259 259 260 261 261 262 263 265 267 268 270 271 272 275 277 279 280 282 282 283 284 285 286 287 288 290 290 291 291 293 294 295 297 298 299 300 301 302 302
254 255 256 257 258 258 259 260 261 262 263 265 266 267 269 271 273 276 278 279 280 281 282 282 283 284 285 286 287 288 289 290 291 292 293 295 297 298 300 301 302 303 304
254 254 255 256 257 258 259 260 262 263 264 265 266 268 270 272 275 277 278 279 280 281 282 282 283 283 284 285 286 287 288 290 291 292 293 295 296 298 300 301 302 303 305
254 255 256 256 257 258 259 261 262 263 264 266 267 269 271 273 275 276 277 278 280 281 282 282 282 284 284 285 286 287 288 289 290 292 293 294 295 297 298 300 301 303 303
257 257 258 258 258 259 259 260 262 264 266 267 268 270 271 273 274 276 276 278 280 280 280 280 281 283 284 285 286 287 288 288 289 291 292 293 294 296 298 299 300 301 302
256 257 259 259 260 260 260 261 262 263 265 267 269 270 271 273 275 275 277 278 278 278 279 280 280 281 283 284 286 287 288 289 289 290 292 293 294 295 297 298 299 299 301
257 258 258 258 259 260 261 262 264 265 266 268 270 271 272 274 275 277 278 277 276 277 278 279 279 281 282 284 286 286 287 288 290 291 292 294 295 296 297 297 297 298 299
257 259 259 258 259 260 261 262 264 265 266 268 271 272 273 274 276 277 277 276 275 276 277 278 279 281 282 283 285 286 287 287 289 291 294 295 296 297 297 296 296 297 298
258 259 259 259 259 261 262 263 264 265 267 269 269 270 272 274 275 276 275 274 274 275 278 279 280 281 283 284 284 285 285 286 288 290 293 295 296 298 298 297 297 298 299
258 259 260 260 261 262 263 264 264 265 267 269 269 270 271 272 273 274 274 274 275 277 278 279 281 282 283 283 283 283 284 286 288 290 292 294 296 297 298 298 299 299 300
258 260 261 261 263 265 266 266 266 266 267 268 270 270 271 272 272 273 274 275 276 277 278 279 281 282 282 282 283 283 284 286 288 290 292 293 295 296 297 299 299 299 300
260 261 262 262 264 265 266 266 267 267 268 269 269 270 270 270 271 273 275 276 277 277 279 279 280 282 283 282 283 284 285 285 287 290 292 292 292 293 296 297 298 299 300
259 260 261 262 263 264 265 266 266 267 268 268 269 269 269 269 270 272 274 276 277 278 279 280 280 282 282 282 282 283 284 286 288 289 290 291 290 291 293 294 295 298 300
259 261 262 262 262 263 264 266 267 268 268 269 268 268 269 270 271 272 274 276 277 278 279 279 279 279 279 280 281 282 284 285 286 287 288 289 290 291 292 293 295 299 301
259 260 261 261 261 263 264 265 266 267 267 267 266 267 268 270 271 273 276 278 279 279 279 279 278 277 278 280 281 282 284 286 286 286 287 287 288 291 293 295 299 301 303
259 260 261 262 262 262 263 265 266 265 265 265 265 265 266 268 270 272 275 277 279 278 277 277 277 276 278 279 279 281 283 285 286 286 288 288 289 292 295 298 301 303 306
Height
5699 5702 5705 5708 5710 5712 5715 5717 5718 5720 5721 5722 5722 5723 5723 5723 5722 5722 5721 5720 5718 5717 5715 5713 5710 5708 5705 5702 5698 5695 5691 5687 5684 5683 5677 5672 5666 5661 5656 5651 5646 5641 5636
5688 5692 5695 5697 5700 5702 5704 5706 5708 5709 5710 5711 5711 5712 5712 5712 5712 5711 5710 5709 5708 5706 5704 5702 5700 5697 5694 5691 5688 5684 5680 5676 5672 5669 5666 5660 5655 5649 5644 5640 5635 5630 5625
5678 5681 5684 5686 5689 5691 5693 5695 5697 5698 5699 5700 5701 5701 5701 5701 5701 5700 5699 5698 5697 5695 5693 5691 5688 5685 5683 5680 5676 5673 5669 5664 5660 5656 5653 5648 5643 5638 5633 5629 5624 5620 5615
5667 5670 5673 5676 5678 5680 5682 5684 5686 5687 5688 5689 5689 5690 5690 5690 5689 5688 5688 5686 5685 5683 5681 5679 5676 5674 5671 5668 5664 5661 5657 5653 5648 5644 5640 5636 5632 5626 5622 5618 5614 5610 5606
5657 5660 5662 5664 5667 5669 5671 5673 5674 5675 5677 5677 5678 5678 5678 5678 5677 5677 5676 5674 5673 5671 5669 5667 5665 5662 5659 5655 5652 5648 5644 5640 5636 5632 5628 5625 5621 5616 5612 5607 5604 5600 5596
5645 5648 5651 5653 5655 5658 5660 5661 5663 5664 5665 5666 5666 5666 5666 5666 5665 5664 5663 5662 5661 5659 5658 5656 5653 5650 5647 5644 5640 5636 5632 5628 5624 5620 5617 5613 5610 5605 5601 5597 5593 5590 5588
5634 5637 5639 5641 5644 5646 5648 5649 5651 5652 5653 5653 5654 5654 5654 5653 5652 5652 5651 5650 5649 5647 5645 5643 5641 5638 5634 5631 5628 5624 5620 5615 5611 5608 5604 5601 5598 5595 5591 5587 5583 5579 5576
5622 5625 5627 5629 5631 5633 5635 5637 5638 5639 5640 5641 5641 5641 5641 5640 5640 5639 5638 5637 5636 5635 5633 5631 5628 5625 5622 5619 5615 5612 5608 5604 5600 5596 5593 5590 5586 5583 5579 5576 5572 5569 5566
5611 5613 5615 5617 5619 5621 5623 5624 5626 5626 5627 5628 5628 5628 5628 5628 5627 5626 5626 5625 5624 5623 5621 5618 5615 5613 5610 5606 5603 5600 5596 5592 5588 5584 5581 5578 5575 5572 5569 5566 5562 5559 5557
5598 5600 5603 5605 5607 5609 5610 5612 5613 5614 5615 5615 5616 5616 5616 5616 5615 5614 5614 5613 5612 5610 5608 5605 5603 5600 5597 5593 5590 5587 5584 5581 5578 5574 5571 5568 5565 5562 5559 5556 5553 5549 5546
5586 5588 5590 5592 5594 5596 5598 5599 5601 5602 5603 5604 5604 5604 5604 5604 5603 5602 5601 5600 5599 5597 5595 5593 5591 5588 5585 5582 5579 5576 5573 5571 5568 5565 5562 5559 5556 5553 5550 5547 5543 5540 5536
5574 5576 5579 5580 5582 5584 5586 5587 5589 5590 5591 5591 5592 5593 5592 5592 5591 5590 5589 5587 5586 5584 5583 5581 5579 5576 5573 5571 5568 5565 5563 5561 5558 5556 5553 5551 5548 5545 5542 5538 5534 5530 5526
5563 5565 5567 5569 5571 5573 5575 5576 5577 5578 5579 5580 5580 5581 5581 5580 5579 5578 5577 5575 5574 5572 5570 5569 5567 5564 5562 5560 5558 5555 5553 5551 5549 5547 5544 5542 5539 5536 5533 5529 5526 5522 5518
5552 5554 5556 5558 5560 5562 5563 5564 5566 5567 5567 5568 5569 5569 5569 5569 5568 5566 5565 5564 5563 5561 5559 5558 5556 5553 5551 5549 5548 5545 5544 5542 5540 5537 5535 5532 5530 5527 5524 5521 5518 5514 5511
5541 5543 5545 5546 5548 5550 5552 5553 5554 5555 5556 5557 5557 5557 5557 5557 5556 5555 5554 5553 5552 5550 5548 5547 5545 5544 5542 5540 5538 5536 5534 5532 5530 5528 5525 5523 5521 5518 5515 5512 5509 5506 5503
5531 5532 5534 5536 5537 5539 5541 5542 5543 5544 5545 5545 5545 5546 5546 5546 5545 5544 5542 5541 5540 5539 5538 5537 5535 5534 5532 5530 5529 5527 5525 5522 5520 5518 5516 5514 5511 5509 5506 5504 5501 5498 5495
5521 5522 5524 5526 5527 5529 5530 5531 5533 5533 5534 5534 5534 5534 5534 5534 5533 5532 5531 5530 5529 5528 5527 5527 5526 5524 5523 5521 5519 5517 5516 5513 5511 5509 5507 5505 5502 5500 5498 5495 5492 5490 5487
5511 5513 5515 5516 5517 5519 5520 5521 5522 5523 5524 5524 5524 5524 5523 5523 5522 5521 5521 5520 5519 5518 5518 5517 5516 5515 5513 5512 5510 5508 5507 5505 5503 5501 5498 5496 5494 5492 5489 5487 5484 5482 5480
5503 5504 5505 5507 5508 5509 5510 5511 5512 5513 5513 5514 5514 5513 5513 5512 5512 5511 5510 5510 5510 5509 5508 5507 5506 5505 5503 5502 5501 5499 5497 5496 5494 5492 5490 5488 5486 5484 5481 5479 5477 5474 5472
5494 5495 5496 5498 5499 5500 5501 5501 5502 5503 5503 5503 5504 5503 5503 5503 5503 5502 5502 5501 5500 5500 5499 5498 5496 5495 5494 5493 5491 5490 5489 5487 5486 5484 5482 5480 5478 5476 5474 5471 5469 5467 5466
5486 5487 5488 5489 5490 5491 5491 5492 5492 5493 5493 5494 5494 5494 5494 5494 5494 5493 5493 5492 5491 5491 5490 5489 5487 5486 5485 5484 5482 5481 5480 5479 5478 5476 5474 5472 5470 5468 5466 5465 5463 5461 5459
5477 5478 5479 5480 5481 5482 5482 5483 5483 5483 5484 5484 5484 5484 5484 5484 5484 5484 5484 5483 5483 5482 5481 5480 5479 5478 5476 5475 5474 5473 5472 5471 5470 5468 5466 5465 5463 5462 5460 5459 5457 5456 5454
5469 5470 5471 5471 5472 5473 5473 5474 5474 5474 5475 5475 5475 5476 5476 5476 5476 5476 5475 5474 5474 5473 5472 5471 5470 5469 5468 5467 5467 5466 5465 5463 5462 5461 5459 5458 5457 5456 5454 5453 5452 5451 5450
5460 5461 5462 5463 5464 5464 5465 5465 5466 5466 5466 5466 5467 5467 5467 5468 5468 5467 5467 5466 5465 5465 5464 5463 5462 5462 5461 5460 5459 5458 5457 5456 5455 5454 5453 5452 5451 5451 5450 5449 5448 5447 5446
5452 5453 5454 5454 5455 5456 5457 5457 5457 5457 5458 5458 5459 5459 5460 5460 5460 5460 5459 5459 5458 5457 5456 5456 5455 5454 5454 5453 5453 5452 5451 5450 5449 5449 5448 5447 5447 5446 5446 5445 5444 5443 5442
5443 5444 5445 5446 5447 5448 5448 5449 5449 5449 5450 5450 5451 5452 5452 5453 5453 5453 5452 5452 5451 5450 5450 5449 5449 5448 5448 5448 5447 5447 5446 5445 5445 5444 5444 5443 5443 5443 5443 5442 5441 5440 5439